GW3530 Weather Reports


time (UTC)temp
C
wind
direction
speed
KPH
gust
KPH
rain 1hr
cm
rain 24hr
cm
rain mn
cm
humidity
%
barometer
mb
20260906224550 19 5 16.1 25.7 0.00 0.00 0.00 69 1009.5
20260906223058 19 355 14.5 25.7 0.00 0.00 0.00 69 1009.4
20260906221548 19 330 24.1 29.0 0.00 0.00 0.00 68 1009.4
20260906220054 20 9 22.5 30.6 0.00 0.00 0.00 68 1009.3
20260906214505 20 350 19.3 27.4 0.00 0.00 0.00 67 1009.3
20260906213014 20 17 20.9 30.6 0.00 0.00 0.00 67 1009.4
20260906211503 20 355 20.9 29.0 0.00 0.00 0.00 66 1009.3
20260906210007 20 355 19.3 25.7 0.00 0.00 0.00 67 1009.5
20260906204510 20 347 8.0 16.1 0.00 0.00 0.00 66 1009.7
20260906203024 20 350 4.8 14.5 0.00 0.00 0.00 65 1009.8
20260906201530 20 51 6.4 19.3 0.00 0.00 0.00 64 1009.8
20260906200016 20 69 8.0 24.1 0.00 0.00 0.00 66 1009.9
20260906194519 20 54 14.5 29.0 0.00 0.00 0.00 67 1009.8
20260906193020 19 24 17.7 30.6 0.00 0.00 0.00 67 1010.0
20260906191521 19 66 22.5 32.2 0.00 0.00 0.00 69 1010.1
20260906190006 18 360 22.5 41.8 0.00 0.00 0.00 71 1010.2
20260906184602 17 19 29.0 41.8 0.00 0.00 0.00 74 1010.2
20260906184505 17 28 27.4 41.8 0.00 0.00 0.00 74 1010.2
20260906183004 16 36 27.4 37.0 0.00 0.00 0.00 78 1010.5
20260906181506 15 27 27.4 40.2 0.00 0.00 0.00 79 1011.5
20260906180009 14 17 25.7 40.2 0.00 0.00 0.00 81 1011.6
20260906174511 14 355 30.6 38.6 0.00 0.00 0.00 82 1011.9
20260906173019 14 5 27.4 35.4 0.00 0.00 0.00 85 1012.0
20260906171529 14 355 22.5 30.6 0.00 0.00 0.00 87 1012.0
20260906170037 15 355 16.1 22.5 0.00 0.00 0.00 87 1012.0
20260906164543 15 5 14.5 19.3 0.00 0.00 0.00 87 1012.0
20260906163054 15 5 12.9 17.7 0.00 0.00 0.00 87 1011.9
20260906161558 15 11 12.9 17.7 0.00 0.00 0.00 87 1012.2
20260906160100 15 41 12.9 19.3 0.00 0.00 0.00 87 1012.1
20260906160004 15 30 12.9 19.3 0.00 0.00 0.00 87 1012.1
20260906154507 15 18 9.7 17.7 0.00 0.00 0.00 87 1012.4
20260906153006 15 57 11.3 17.7 0.00 0.00 0.00 87 1012.4
20260906151559 15 54 9.7 17.7 0.00 0.00 0.00 86 1012.5
20260906150100 15 66 14.5 25.7 0.00 0.00 0.00 86 1012.6
20260906150006 15 76 14.5 25.7 0.00 0.00 0.00 86 1012.6
20260906144516 15 32 19.3 32.2 0.00 0.00 0.00 86 1012.1
20260906143016 15 53 16.1 30.6 0.00 0.00 0.00 87 1012.1
20260906141513 14 67 16.1 22.5 0.00 0.00 0.00 88 1012.4
20260906140036 14 42 9.7 16.1 0.00 0.00 0.00 88 1012.8
20260906134519 13 37 12.9 20.9 0.00 0.00 0.00 89 1012.5
20260906133025 13 11 17.7 24.1 0.00 0.00 0.00 90 1012.5
20260906131509 13 21 19.3 25.7 0.00 0.00 0.00 90 1012.6
20260906130016 13 5 14.5 20.9 0.00 0.03 0.00 91 1013.2
20260906124521 12 10 16.1 27.4 0.00 0.03 0.00 91 1013.1
20260906123029 12 355 22.5 29.0 0.00 0.03 0.00 91 1012.7
20260906121531 12 9 19.3 29.0 0.00 0.03 0.00 91 1012.7
20260906120045 12 10 17.7 29.0 0.00 0.03 0.00 92 1012.6
20260906114533 12 5 22.5 30.6 0.00 0.03 0.00 91 1012.5
20260906113043 12 349 24.1 35.4 0.00 0.03 0.00 91 1012.6
20260906111528 12 13 25.7 32.2 0.00 0.03 0.00 91 1012.7
20260906110032 12 344 29.0 35.4 0.00 0.03 0.00 91 1012.7
20260906104536 12 348 27.4 33.8 0.00 0.03 0.00 90 1012.7
20260906103049 12 355 30.6 40.2 0.00 0.03 0.00 90 1012.9
20260906101550 12 19 27.4 41.8 0.00 0.03 0.00 89 1012.9
20260906100057 12 5 29.0 40.2 0.00 0.03 0.00 89 1013.0
20260906094609 12 9 32.2 43.5 0.00 0.03 0.00 89 1012.5
20260906094501 12 5 30.6 43.5 0.00 0.03 0.00 89 1012.6
20260906093014 12 5 33.8 45.1 0.00 0.03 0.00 89 1012.8
20260906091505 12 11 32.2 41.8 0.00 0.03 0.00 88 1012.9
20260906090013 12 5 37.0 46.7 0.00 0.03 0.00 88 1013.0
20260906084518 12 355 32.2 46.7 0.00 0.03 0.00 87 1013.1
20260906083028 12 9 29.0 40.2 0.00 0.03 0.00 86 1013.3
20260906081518 12 5 32.2 40.2 0.00 0.03 0.00 86 1013.4
20260906080020 12 31 30.6 38.6 0.00 0.03 0.00 85 1013.4
20260906074529 13 9 29.0 38.6 0.00 0.03 0.00 84 1013.9
20260906073024 13 9 30.6 46.7 0.00 0.03 0.00 83 1013.9
20260906071559 13 17 32.2 43.5 0.00 0.03 0.00 83 1014.1
20260906071501 13 9 32.2 43.5 0.00 0.03 0.00 82 1014.1
20260906070046 13 19 30.6 43.5 0.00 0.03 0.00 82 1014.2
20260906064551 13 28 29.0 40.2 0.00 0.03 0.00 82 1014.5
20260906063059 13 20 30.6 41.8 0.00 0.03 0.00 82 1014.6
20260906063002 13 351 32.2 43.5 0.00 0.03 0.00 82 1014.6
20260906061504 13 17 30.6 41.8 0.00 0.03 0.00 82 1014.5
20260906060055 13 5 25.7 43.5 0.00 0.03 0.03 81 1014.7
20260906054605 13 26 32.2 41.8 0.00 0.03 0.03 80 1014.6
20260906054501 13 17 30.6 41.8 0.00 0.03 0.03 80 1014.7
20260906053013 14 10 33.8 45.1 0.00 0.03 0.03 78 1014.6
20260906051552 14 360 29.0 41.8 0.00 0.03 0.03 77 1014.5
20260906050100 14 30 32.2 41.8 0.00 0.03 0.03 76 1014.7
20260906050002 14 11 32.2 41.8 0.00 0.03 0.03 75 1014.7
20260906044509 14 9 29.0 45.1 0.00 0.03 0.03 74 1014.5
20260906043017 15 9 35.4 46.7 0.00 0.03 0.03 74 1014.1
20260906041533 15 14 33.8 49.9 0.00 0.03 0.03 73 1013.8
20260906040027 15 12 33.8 48.3 0.00 0.03 0.03 72 1013.8
20260906034516 15 5 29.0 45.1 0.00 0.03 0.03 72 1014.1
20260906033020 15 351 33.8 43.5 0.00 0.03 0.03 70 1014.1
20260906031509 15 11 33.8 43.5 0.00 0.03 0.03 70 1013.6
20260906030013 15 348 33.8 45.1 0.00 0.03 0.03 69 1013.1
20260906024515 15 345 33.8 45.1 0.00 0.03 0.03 68 1012.8
20260906023024 16 355 37.0 46.7 0.00 0.03 0.03 67 1012.7
20260906021514 16 348 30.6 41.8 0.00 0.03 0.03 66 1012.8
20260906020105 16 360 32.2 45.1 0.00 0.03 0.03 64 1012.7
20260906020002 16 350 33.8 45.1 0.00 0.03 0.03 64 1012.8
20260906014525 17 26 32.2 45.1 0.00 0.03 0.03 62 1012.7
20260906013023 18 5 33.8 41.8 0.00 0.03 0.03 59 1012.6
20260906011524 19 25 33.8 45.1 0.00 0.03 0.03 55 1012.5
20260906010056 20 5 30.6 41.8 0.00 0.03 0.03 50 1012.4
20260906004529 22 17 37.0 46.7 0.00 0.03 0.03 46 1012.4
20260906003016 23 43 17.7 33.8 0.00 0.03 0.03 38 1012.4
20260906001533 23 33 19.3 32.2 0.00 0.03 0.03 37 1012.4
20260906000032 24 58 20.9 30.6 0.00 0.03 0.03 35 1012.5
20260905234535 24 12 17.7 25.7 0.00 0.03 0.03 35 1012.5
20260905233050 25 37 16.1 27.4 0.00 0.03 0.03 35 1012.4
20260905231556 25 355 11.3 25.7 0.00 0.03 0.03 34 1012.6
20260905230005 25 40 12.9 25.7 0.00 0.03 0.03 34 1012.4